Voltar ao catálogo

FENGYUN 1C DEB

LostPO
NORAD 38807·DEBRIS·🇨🇳 China

Lançado May 10, 1999 de Taiyuan Satellite Launch Center

Loading…

Próximas Passagens (próximas 24 horas)

TLE

ObsoletoSource: Space-Track

Época: Apr 6, 2024, 06:08 UTC

1 38807U 99025EUX 24097.25564211  .00004205  00000-0  36634-2 0  9994
2 38807  98.4463 109.1760 0223596 353.8460   5.9955 13.75617858493574

Acompanhe FENGYUN 1C DEB em tempo real com AllMySat

Download on the App Store